This is the latest recevied weather packets stored in our database for station/object WB4YDL. If no packets are shown the sender has not sent any weather packets the latest 1 day(s).
| Time | Temp. | Humidity | Pressure | Rain* | Wind** | Luminosity | Snow |
|---|---|---|---|---|---|---|---|
| 1778093983 | 13.89° C | 80% | 1010.1 hPa | 0 mm | - | 149 W/m² | - |
| 1778093680 | 13.89° C | 80% | 1010 hPa | 0 mm | - | 160 W/m² | - |
| 1778092771 | 13.89° C | 80% | 1010.2 hPa | 0 mm | - | 228 W/m² | - |
| 1778092466 | 13.89° C | 80% | 1010.1 hPa | 0 mm | - | 181 W/m² | - |
| 1778088830 | 15° C | 80% | 1010.5 hPa | 0 mm | - | 238 W/m² | - |
| 1778088224 | 13.89° C | 82% | 1010.3 hPa | 0 mm | - | 402 W/m² | - |
| 1778087317 | 13.33° C | 85% | 1010.2 hPa | 0 mm | - | 288 W/m² | - |
| 1778086409 | 12.78° C | 84% | 1010.2 hPa | 0 mm | - | 356 W/m² | - |
| 1778086100 | 13.33° C | 84% | 1010.1 hPa | 0 mm | - | 289 W/m² | - |
| 1778085494 | 13.33° C | 86% | 1009.8 hPa | 0 mm | - | 406 W/m² | - |
| 1778083365 | 11.67° C | 88% | 1010 hPa | 0 mm | - | 255 W/m² | - |
| 1778083064 | 11.67° C | 87% | 1010.1 hPa | 0 mm | - | 235 W/m² | - |
| 1778082760 | 11.67° C | 88% | 1010.1 hPa | 0 mm | - | 210 W/m² | - |
| 1778081633 | 11.67° C | 89% | 1010.3 hPa | 0 mm | - | 228 W/m² | - |
| 1778081330 | 11.67° C | 89% | 1010.3 hPa | 0 mm | - | 235 W/m² | - |
| 1778081027 | 11.11° C | 89% | 1010.3 hPa | 0 mm | - | 262 W/m² | - |
| 1778080422 | 11.11° C | 89% | 1010.2 hPa | 0 mm | - | 191 W/m² | - |
| 1778080119 | 11.67° C | 89% | 1010.3 hPa | 0 mm | - | 186 W/m² | - |
| 1778079209 | 11.11° C | 89% | 1010.2 hPa | 0 mm | - | 174 W/m² | - |
| 1778077998 | 11.11° C | 90% | 1009.6 hPa | 0 mm | - | 228 W/m² | - |
| 1778077696 | 10.56° C | 91% | 1009.4 hPa | 0 mm | - | 215 W/m² | - |
| 1778077092 | 10.56° C | 91% | 1009.2 hPa | 0 mm | - | 229 W/m² | - |
| 1778076790 | 10.56° C | 91% | 1009.3 hPa | 0 mm | - | 215 W/m² | - |
| 1778075577 | 10° C | 92% | 1009.4 hPa | 0 mm | - | 135 W/m² | - |
| 1778074061 | 9.44° C | 93% | 1008.7 hPa | 0 mm | - | 128 W/m² | - |
* Rain latest hour (hover to see other rain measurements)
** Current wind speed in m/s (hover to see current wind gust speed)